• In Deutschland
  • Länderverzeichnis
  • Für 7 Tage
  • Wassertemperatur
  • Satellitenkarten
  • Wetterkarte
  • Widgets
  • user-avatar
    Anmelden

    Stündliche Wetter Buriti Alegre

    Heute, 20 August, Montag

    Zeit Temperatur Niederschläge Wind Luftdruck Luftfeuchtigkeit
    00:00 +25°C° 0 mm 2 m/S 702 mmHg 46%
    01:00 +24°C° 0 mm 2 m/S 702 mmHg 49%
    02:00 +23°C° 0 mm 2 m/S 702 mmHg 52%
    03:00 +21°C° 0 mm 2 m/S 702 mmHg 56%
    04:00 +21°C° 0 mm 2 m/S 702 mmHg 58%
    05:00 +20°C° 0 mm 2 m/S 702 mmHg 59%
    06:00 +20°C° 0 mm 2 m/S 702 mmHg 61%
    07:00 +21°C° 0 mm 3 m/S 702 mmHg 56%
    08:00 +24°C° 0 mm 3 m/S 703 mmHg 52%
    09:00 +26°C° 0 mm 5 m/S 704 mmHg 46%
    10:00 +27°C° 0 mm 4 m/S 704 mmHg 39%
    11:00 +29°C° 0 mm 3 m/S 704 mmHg 33%
    12:00 +31°C° 0 mm 2 m/S 703 mmHg 26%
    13:00 +31°C° 0 mm 2 m/S 703 mmHg 25%
    14:00 +32°C° 0 mm 2 m/S 703 mmHg 23%
    15:00 +32°C° 0 mm 2 m/S 702 mmHg 21%
    16:00 +31°C° 0 mm 2 m/S 702 mmHg 23%
    17:00 +30°C° 0 mm 2 m/S 702 mmHg 25%
    18:00 +29°C° 0 mm 2 m/S 701 mmHg 27%
    19:00 +28°C° 0 mm 2 m/S 702 mmHg 29%
    20:00 +27°C° 0 mm 2 m/S 702 mmHg 31%
    21:00 +26°C° 0 mm 3 m/S 702 mmHg 33%
    22:00 +26°C° 0 mm 2 m/S 702 mmHg 35%
    23:00 +25°C° 0 mm 2 m/S 702 mmHg 37%

    Morgen, 21 August, Dienstag

    Zeit Temperatur Niederschläge Wind Luftdruck Luftfeuchtigkeit
    00:00 +24°C° 0 mm 2 m/S 702 mmHg 39%
    01:00 +24°C° 0 mm 2 m/S 702 mmHg 41%
    02:00 +23°C° 0 mm 2 m/S 702 mmHg 43%
    03:00 +21°C° 0 mm 2 m/S 701 mmHg 45%
    04:00 +21°C° 0 mm 3 m/S 701 mmHg 44%
    05:00 +20°C° 0 mm 3 m/S 701 mmHg 44%
    06:00 +20°C° 0 mm 3 m/S 701 mmHg 44%
    07:00 +21°C° 0 mm 3 m/S 702 mmHg 42%
    08:00 +23°C° 0 mm 4 m/S 703 mmHg 39%
    09:00 +26°C° 0 mm 5 m/S 703 mmHg 37%
    10:00 +27°C° 0 mm 4 m/S 703 mmHg 33%
    11:00 +29°C° 0 mm 4 m/S 704 mmHg 29%
    12:00 +31°C° 0 mm 3 m/S 704 mmHg 25%
    13:00 +33°C° 0 mm 3 m/S 703 mmHg 24%
    14:00 +32°C° 0 mm 2 m/S 702 mmHg 22%
    15:00 +32°C° 0 mm 2 m/S 702 mmHg 21%
    16:00 +31°C° 0 mm 2 m/S 701 mmHg 23%
    17:00 +30°C° 0 mm 2 m/S 701 mmHg 25%
    18:00 +29°C° 0 mm 2 m/S 701 mmHg 27%
    19:00 +28°C° 0 mm 2 m/S 701 mmHg 29%
    20:00 +27°C° 0 mm 2 m/S 701 mmHg 30%
    21:00 +26°C° 0 mm 3 m/S 702 mmHg 32%
    22:00 +25°C° 0 mm 3 m/S 702 mmHg 33%
    23:00 +25°C° 0 mm 2 m/S 702 mmHg 35%

    übermorgen, 22 August, Mittwoch

    Zeit Temperatur Niederschläge Wind Luftdruck Luftfeuchtigkeit
    00:00 +24°C° 0 mm 2 m/S 702 mmHg 37%
    01:00 +23°C° 0 mm 2 m/S 702 mmHg 38%
    02:00 +23°C° 0 mm 2 m/S 701 mmHg 40%
    03:00 +21°C° 0 mm 3 m/S 701 mmHg 42%
    04:00 +21°C° 0 mm 2 m/S 701 mmHg 43%
    05:00 +20°C° 0 mm 2 m/S 701 mmHg 44%
    06:00 +20°C° 0 mm 2 m/S 701 mmHg 45%
    07:00 +22°C° 0 mm 3 m/S 701 mmHg 42%
    08:00 +23°C° 0 mm 4 m/S 702 mmHg 38%
    09:00 +26°C° 0 mm 4 m/S 703 mmHg 35%
    10:00 +28°C° 0 mm 4 m/S 703 mmHg 32%
    11:00 +30°C° 0 mm 4 m/S 703 mmHg 29%
    12:00 +33°C° 0 mm 3 m/S 703 mmHg 25%
    13:00 +32°C° 0 mm 2 m/S 702 mmHg 24%
    14:00 +34°C° 0 mm 2 m/S 701 mmHg 22%
    15:00 +34°C° 0 mm 1 m/S 701 mmHg 21%
    16:00 +32°C° 0 mm 1 m/S 700 mmHg 23%
    17:00 +31°C° 0 mm 1 m/S 700 mmHg 25%
    18:00 +30°C° 0 mm 2 m/S 700 mmHg 27%
    19:00 +29°C° 0 mm 2 m/S 700 mmHg 29%
    20:00 +27°C° 0 mm 2 m/S 700 mmHg 31%
    21:00 +26°C° 0 mm 2 m/S 700 mmHg 33%
    22:00 +26°C° 0 mm 2 m/S 700 mmHg 34%
    23:00 +25°C° 0 mm 2 m/S 700 mmHg 36%

    23 August, Donnerstag

    Zeit Temperatur Niederschläge Wind Luftdruck Luftfeuchtigkeit
    00:00 +25°C° 0 mm 2 m/S 700 mmHg 38%
    01:00 +25°C° 0 mm 3 m/S 700 mmHg 39%
    02:00 +24°C° 0 mm 3 m/S 700 mmHg 41%
    03:00 +24°C° 0 mm 3 m/S 699 mmHg 43%
    04:00 +22°C° 0 mm 3 m/S 699 mmHg 46%
    05:00 +22°C° 0 mm 3 m/S 699 mmHg 48%
    06:00 +21°C° 0 mm 3 m/S 699 mmHg 51%
    07:00 +23°C° 0 mm 4 m/S 700 mmHg 47%
    08:00 +25°C° 0 mm 4 m/S 700 mmHg 43%
    09:00 +27°C° 0 mm 5 m/S 701 mmHg 39%
    10:00 +29°C° 0 mm 5 m/S 701 mmHg 35%
    11:00 +32°C° 0 mm 4 m/S 701 mmHg 31%
    12:00 +34°C° 0 mm 4 m/S 701 mmHg 27%
    13:00 +34°C° 0 mm 3 m/S 700 mmHg 25%
    14:00 +35°C° 0 mm 3 m/S 700 mmHg 24%
    15:00 +35°C° 0 mm 2 m/S 699 mmHg 23%
    16:00 +34°C° 0 mm 2 m/S 699 mmHg 25%
    17:00 +32°C° 0 mm 2 m/S 699 mmHg 27%
    18:00 +31°C° 0 mm 2 m/S 699 mmHg 28%
    19:00 +30°C° 0 mm 2 m/S 699 mmHg 30%
    20:00 +29°C° 0 mm 3 m/S 699 mmHg 31%
    21:00 +28°C° 0 mm 3 m/S 700 mmHg 33%
    22:00 +27°C° 0 mm 3 m/S 700 mmHg 35%
    23:00 +27°C° 0 mm 3 m/S 700 mmHg 37%

    24 August, Freitag

    Zeit Temperatur Niederschläge Wind Luftdruck Luftfeuchtigkeit
    00:00 +26°C° 0 mm 3 m/S 700 mmHg 39%
    01:00 +25°C° 0 mm 3 m/S 700 mmHg 41%
    02:00 +25°C° 0 mm 3 m/S 699 mmHg 43%
    03:00 +24°C° 0 mm 3 m/S 699 mmHg 44%
    04:00 +24°C° 0 mm 3 m/S 699 mmHg 46%
    05:00 +22°C° 0 mm 3 m/S 699 mmHg 47%
    06:00 +22°C° 0 mm 3 m/S 699 mmHg 48%
    07:00 +25°C° 0 mm 4 m/S 700 mmHg 45%
    08:00 +26°C° 0 mm 5 m/S 700 mmHg 41%
    09:00 +27°C° 0 mm 6 m/S 701 mmHg 37%
    10:00 +29°C° 0 mm 5 m/S 701 mmHg 34%
    11:00 +32°C° 0 mm 5 m/S 701 mmHg 30%
    12:00 +34°C° 0 mm 5 m/S 701 mmHg 26%
    13:00 +34°C° 0 mm 4 m/S 700 mmHg 24%
    14:00 +35°C° 0 mm 4 m/S 700 mmHg 22%
    15:00 +36°C° 0 mm 3 m/S 699 mmHg 20%
    16:00 +34°C° 0 mm 3 m/S 699 mmHg 22%
    17:00 +32°C° 0 mm 2 m/S 699 mmHg 24%
    18:00 +31°C° 0 mm 2 m/S 699 mmHg 26%
    19:00 +30°C° 0 mm 2 m/S 699 mmHg 29%
    20:00 +29°C° 0 mm 2 m/S 700 mmHg 31%
    21:00 +27°C° 0 mm 2 m/S 700 mmHg 33%
    22:00 +27°C° 0 mm 3 m/S 700 mmHg 35%
    23:00 +26°C° 0 mm 3 m/S 700 mmHg 37%

    25 August, Samstag

    Zeit Temperatur Niederschläge Wind Luftdruck Luftfeuchtigkeit
    00:00 +26°C° 0 mm 3 m/S 699 mmHg 39%
    01:00 +25°C° 0 mm 3 m/S 699 mmHg 40%
    02:00 +25°C° 0 mm 3 m/S 699 mmHg 41%
    03:00 +25°C° 0 mm 3 m/S 698 mmHg 42%
    04:00 +24°C° 0 mm 3 m/S 698 mmHg 43%
    05:00 +24°C° 0 mm 3 m/S 699 mmHg 44%
    06:00 +22°C° 0 mm 3 m/S 699 mmHg 44%
    07:00 +25°C° 0 mm 3 m/S 700 mmHg 41%
    08:00 +27°C° 0 mm 4 m/S 701 mmHg 37%
    09:00 +28°C° 0 mm 4 m/S 701 mmHg 33%
    10:00 +29°C° 0 mm 4 m/S 702 mmHg 33%
    11:00 +29°C° 0 mm 4 m/S 702 mmHg 33%
    12:00 +30°C° 0 mm 4 m/S 702 mmHg 33%
    13:00 +30°C° 0 mm 3 m/S 701 mmHg 33%
    14:00 +30°C° 0 mm 3 m/S 701 mmHg 34%
    15:00 +30°C° 0 mm 3 m/S 700 mmHg 35%
    16:00 +29°C° 0 mm 2 m/S 700 mmHg 39%
    17:00 +28°C° 0 mm 2 m/S 700 mmHg 43%
    18:00 +27°C° 0 mm 2 m/S 700 mmHg 48%
    19:00 +26°C° 0 mm 1 m/S 700 mmHg 49%
    20:00 +26°C° 0 mm 1 m/S 701 mmHg 50%
    21:00 +25°C° 0 mm 1 m/S 701 mmHg 51%
    22:00 +25°C° 0 mm 2 m/S 701 mmHg 55%
    23:00 +24°C° 0 mm 2 m/S 701 mmHg 58%
    Mehr zeigen